| time (UTC) | temp C | wind direction | speed KPH | gust KPH | rain 1hr cm | rain 24hr cm | rain mn cm | humidity % | barometer mb |
| 20260507001512 | 25 | 163 | 6.4 | 14.5 | 0.00 | 0.00 | 0.00 | 71 | 1013.4 |
| 20260507001340 | 25 | 212 | 6.4 | 12.9 | 0.00 | 0.00 | 0.00 | 70 | 1014.3 |
| 20260507000840 | 25 | 232 | 6.4 | 16.1 | 0.00 | 0.00 | 0.00 | 70 | 1014.2 |
| 20260507000343 | 25 | 207 | 6.4 | 17.7 | 0.00 | 0.00 | 0.00 | 69 | 1014.2 |
| 20260507000011 | 25 | 177 | 6.4 | 16.1 | 0.00 | 0.00 | 0.00 | 70 | 1013.4 |
| 20260506235838 | 25 | 228 | 6.4 | 17.7 | 0.00 | 0.00 | 0.00 | 69 | 1014.2 |
| 20260506235338 | 25 | 216 | 8.0 | 14.5 | 0.00 | 0.00 | 0.00 | 68 | 1014.1 |
| 20260506234838 | 25 | 235 | 8.0 | 14.5 | 0.00 | 0.00 | 0.00 | 68 | 1014.1 |
| 20260506234512 | 25 | 170 | 11.3 | 17.7 | 0.00 | 0.00 | 0.00 | 69 | 1013.2 |
| 20260506234338 | 25 | 217 | 6.4 | 12.9 | 0.00 | 0.00 | 0.00 | 68 | 1014.1 |
| 20260506233835 | 26 | 191 | 6.4 | 12.9 | 0.00 | 0.00 | 0.00 | 68 | 1014.1 |
| 20260506233339 | 26 | 215 | 6.4 | 12.9 | 0.00 | 0.00 | 0.00 | 67 | 1014.0 |
| 20260506233012 | 26 | 174 | 6.4 | 12.9 | 0.00 | 0.00 | 0.00 | 68 | 1013.2 |
| 20260506232834 | 26 | 231 | 4.8 | 12.9 | 0.00 | 0.00 | 0.00 | 67 | 1014.2 |
| 20260506232333 | 26 | 230 | 4.8 | 12.9 | 0.00 | 0.00 | 0.00 | 67 | 1014.2 |
| 20260506231835 | 26 | 223 | 4.8 | 11.3 | 0.00 | 0.00 | 0.00 | 67 | 1014.1 |
| 20260506231510 | 26 | 187 | 4.8 | 12.9 | 0.00 | 0.00 | 0.00 | 68 | 1013.1 |
| 20260506230821 | 26 | 208 | 6.4 | 14.5 | 0.00 | 0.00 | 0.00 | 67 | 1013.9 |
| 20260506230009 | 26 | 166 | 6.4 | 17.7 | 0.00 | 0.00 | 0.00 | 69 | 1013.0 |
| 20260506225803 | 26 | 222 | 6.4 | 16.1 | 0.00 | 0.00 | 0.00 | 68 | 1013.8 |
| 20260506225255 | 26 | 186 | 6.4 | 17.7 | 0.00 | 0.00 | 0.00 | 69 | 1013.7 |
| 20260506224516 | 26 | 158 | 4.8 | 14.5 | 0.00 | 0.00 | 0.00 | 71 | 1012.9 |
| 20260506224244 | 26 | 202 | 6.4 | 14.5 | 0.00 | 0.00 | 0.00 | 70 | 1013.9 |
| 20260506223743 | 26 | 155 | 6.4 | 14.5 | 0.00 | 0.00 | 0.00 | 69 | 1013.9 |
| 20260506223008 | 26 | 178 | 6.4 | 12.9 | 0.00 | 0.00 | 0.00 | 70 | 1013.1 |
| 20260506222748 | 26 | 200 | 6.4 | 12.9 | 0.00 | 0.00 | 0.00 | 69 | 1014.1 |
| 20260506222244 | 26 | 221 | 6.4 | 19.3 | 0.00 | 0.00 | 0.00 | 69 | 1014.1 |
| 20260506221507 | 26 | 97 | 6.4 | 19.3 | 0.00 | 0.00 | 0.00 | 70 | 1013.3 |
| 20260506221223 | 27 | 198 | 6.4 | 14.5 | 0.00 | 0.00 | 0.00 | 69 | 1014.0 |
| 20260506220714 | 27 | 232 | 6.4 | 12.9 | 0.00 | 0.00 | 0.00 | 69 | 1014.0 |
| 20260506220159 | 27 | 168 | 6.4 | 14.5 | 0.00 | 0.00 | 0.00 | 68 | 1013.9 |
| 20260506220008 | 27 | 174 | 6.4 | 16.1 | 0.00 | 0.00 | 0.00 | 69 | 1013.1 |
| 20260506215653 | 27 | 247 | 8.0 | 17.7 | 0.00 | 0.00 | 0.00 | 68 | 1013.9 |
| 20260506215155 | 27 | 210 | 8.0 | 17.7 | 0.00 | 0.00 | 0.00 | 68 | 1013.8 |
| 20260506214506 | 27 | 159 | 6.4 | 17.7 | 0.00 | 0.00 | 0.00 | 69 | 1013.0 |
| 20260506213633 | 27 | 212 | 6.4 | 17.7 | 0.00 | 0.00 | 0.00 | 67 | 1014.0 |
| 20260506213134 | 27 | 212 | 6.4 | 17.7 | 0.00 | 0.00 | 0.00 | 67 | 1014.0 |
| 20260506213008 | 27 | 157 | 4.8 | 16.1 | 0.00 | 0.00 | 0.00 | 68 | 1013.2 |
| 20260506212636 | 27 | 225 | 8.0 | 17.7 | 0.00 | 0.00 | 0.00 | 67 | 1013.9 |
| 20260506212132 | 27 | 172 | 9.7 | 20.9 | 0.00 | 0.00 | 0.00 | 66 | 1014.0 |
| 20260506211622 | 27 | 210 | 9.7 | 20.9 | 0.00 | 0.00 | 0.00 | 66 | 1014.0 |
| 20260506211506 | 27 | 167 | 9.7 | 22.5 | 0.00 | 0.00 | 0.00 | 67 | 1013.1 |
| 20260506211115 | 27 | 226 | 9.7 | 20.9 | 0.00 | 0.00 | 0.00 | 66 | 1013.9 |
| 20260506210603 | 27 | 195 | 9.7 | 24.1 | 0.00 | 0.00 | 0.00 | 66 | 1014.0 |
| 20260506210105 | 27 | 214 | 11.3 | 24.1 | 0.00 | 0.00 | 0.00 | 64 | 1014.0 |
| 20260506210005 | 27 | 149 | 11.3 | 24.1 | 0.00 | 0.00 | 0.00 | 65 | 1013.1 |
| 20260506205547 | 27 | 210 | 9.7 | 20.9 | 0.00 | 0.00 | 0.00 | 63 | 1013.9 |
| 20260506205043 | 28 | 211 | 8.0 | 19.3 | 0.00 | 0.00 | 0.00 | 63 | 1013.9 |
| 20260506204546 | 28 | 199 | 6.4 | 12.9 | 0.00 | 0.00 | 0.00 | 65 | 1013.9 |
| 20260506204505 | 27 | 137 | 6.4 | 12.9 | 0.00 | 0.00 | 0.00 | 66 | 1013.0 |
| 20260506204040 | 28 | 238 | 6.4 | 16.1 | 0.00 | 0.00 | 0.00 | 64 | 1014.0 |
| 20260506203532 | 28 | 180 | 8.0 | 17.7 | 0.00 | 0.00 | 0.00 | 64 | 1014.1 |
| 20260506203003 | 27 | 148 | 8.0 | 19.3 | 0.00 | 0.00 | 0.00 | 65 | 1013.2 |
| 20260506202008 | 28 | 223 | 9.7 | 22.5 | 0.00 | 0.00 | 0.00 | 63 | 1014.2 |
| 20260506201600 | 28 | 158 | 9.7 | 24.1 | 0.00 | 0.00 | 0.00 | 63 | 1013.3 |
| 20260506201503 | 28 | 232 | 9.7 | 20.9 | 0.00 | 0.00 | 0.00 | 62 | 1014.2 |
| 20260506201001 | 28 | 201 | 9.7 | 20.9 | 0.00 | 0.00 | 0.00 | 62 | 1014.2 |
| 20260506200058 | 28 | 181 | 9.7 | 22.5 | 0.00 | 0.00 | 0.00 | 64 | 1013.5 |
| 20260506195459 | 28 | 190 | 8.0 | 17.7 | 0.00 | 0.00 | 0.00 | 62 | 1014.2 |
| 20260506194959 | 28 | 232 | 8.0 | 17.7 | 0.00 | 0.00 | 0.00 | 63 | 1014.3 |
| 20260506194556 | 28 | 183 | 11.3 | 19.3 | 0.00 | 0.00 | 0.00 | 64 | 1013.5 |
| 20260506193950 | 28 | 212 | 8.0 | 17.7 | 0.00 | 0.00 | 0.00 | 63 | 1014.5 |
| 20260506193054 | 28 | 162 | 9.7 | 22.5 | 0.00 | 0.00 | 0.00 | 63 | 1013.6 |
| 20260506192446 | 29 | 224 | 9.7 | 22.5 | 0.00 | 0.00 | 0.00 | 62 | 1014.5 |
| 20260506191945 | 29 | 173 | 8.0 | 17.7 | 0.00 | 0.00 | 0.00 | 61 | 1014.6 |
| 20260506191554 | 29 | 122 | 8.0 | 22.5 | 0.00 | 0.00 | 0.00 | 62 | 1014.0 |
| 20260506191448 | 29 | 156 | 9.7 | 19.3 | 0.00 | 0.00 | 0.00 | 61 | 1014.8 |
| 20260506190942 | 29 | 212 | 9.7 | 19.3 | 0.00 | 0.00 | 0.00 | 60 | 1014.8 |
| 20260506190442 | 30 | 238 | 9.7 | 16.1 | 0.00 | 0.00 | 0.00 | 59 | 1014.9 |
| 20260506190054 | 29 | 141 | 9.7 | 16.1 | 0.00 | 0.00 | 0.00 | 61 | 1014.1 |
| 20260506185944 | 30 | 214 | 8.0 | 22.5 | 0.00 | 0.00 | 0.00 | 60 | 1015.0 |
| 20260506185439 | 30 | 210 | 8.0 | 22.5 | 0.00 | 0.00 | 0.00 | 60 | 1015.1 |
| 20260506184937 | 30 | 220 | 9.7 | 19.3 | 0.00 | 0.00 | 0.00 | 59 | 1015.0 |
| 20260506184557 | 30 | 139 | 8.0 | 16.1 | 0.00 | 0.00 | 0.00 | 61 | 1014.2 |
| 20260506184436 | 30 | 235 | 9.7 | 19.3 | 0.00 | 0.00 | 0.00 | 60 | 1015.1 |
| 20260506183050 | 30 | 173 | 6.4 | 19.3 | 0.00 | 0.00 | 0.00 | 61 | 1014.4 |
| 20260506182917 | 30 | 180 | 8.0 | 19.3 | 0.00 | 0.00 | 0.00 | 59 | 1015.2 |
| 20260506182403 | 30 | 209 | 9.7 | 19.3 | 0.00 | 0.00 | 0.00 | 58 | 1015.3 |
| 20260506181906 | 30 | 219 | 8.0 | 19.3 | 0.00 | 0.00 | 0.00 | 58 | 1015.3 |
| 20260506181553 | 30 | 162 | 11.3 | 22.5 | 0.00 | 0.00 | 0.00 | 59 | 1014.5 |
| 20260506181357 | 30 | 204 | 6.4 | 17.7 | 0.00 | 0.00 | 0.00 | 58 | 1015.3 |
| 20260506180354 | 31 | 218 | 6.4 | 19.3 | 0.00 | 0.00 | 0.00 | 58 | 1015.6 |
| 20260506180048 | 31 | 133 | 4.8 | 20.9 | 0.00 | 0.00 | 0.00 | 57 | 1014.8 |
| 20260506175342 | 31 | 235 | 4.8 | 17.7 | 0.00 | 0.00 | 0.00 | 54 | 1015.7 |
| 20260506174843 | 30 | 347 | 4.8 | 17.7 | 0.00 | 0.00 | 0.00 | 56 | 1015.8 |
| 20260506174559 | 30 | 163 | 3.2 | 14.5 | 0.00 | 0.00 | 0.00 | 55 | 1015.0 |
| 20260506174336 | 30 | 338 | 3.2 | 8.0 | 0.00 | 0.00 | 0.00 | 52 | 1015.9 |
| 20260506173826 | 31 | 162 | 3.2 | 12.9 | 0.00 | 0.00 | 0.00 | 53 | 1016.0 |
| 20260506173326 | 30 | 168 | 4.8 | 12.9 | 0.00 | 0.00 | 0.00 | 52 | 1016.0 |
| 20260506173053 | 30 | 257 | 4.8 | 17.7 | 0.00 | 0.00 | 0.00 | 54 | 1015.1 |
| 20260506172824 | 31 | 85 | 4.8 | 17.7 | 0.00 | 0.00 | 0.00 | 52 | 1016.0 |
| 20260506172321 | 31 | 355 | 3.2 | 17.7 | 0.00 | 0.00 | 0.00 | 51 | 1016.2 |
| 20260506171822 | 31 | 249 | 3.2 | 8.0 | 0.00 | 0.00 | 0.00 | 54 | 1016.3 |
| 20260506171544 | 31 | 125 | 1.6 | 6.4 | 0.00 | 0.00 | 0.00 | 57 | 1015.5 |
| 20260506171322 | 31 | 200 | 3.2 | 6.4 | 0.00 | 0.00 | 0.00 | 55 | 1016.4 |
| 20260506170822 | 31 | 33 | 3.2 | 9.7 | 0.00 | 0.00 | 0.00 | 54 | 1016.4 |
| 20260506170309 | 31 | 222 | 4.8 | 14.5 | 0.00 | 0.00 | 0.00 | 55 | 1016.3 |
| 20260506170043 | 30 | 176 | 3.2 | 16.1 | 0.00 | 0.00 | 0.00 | 54 | 1015.4 |
| 20260506165759 | 31 | 157 | 4.8 | 14.5 | 0.00 | 0.00 | 0.00 | 54 | 1016.4 |
| 20260506165300 | 31 | 204 | 3.2 | 14.5 | 0.00 | 0.00 | 0.00 | 54 | 1016.4 |
| 20260506164800 | 30 | 197 | 3.2 | 9.7 | 0.00 | 0.00 | 0.00 | 55 | 1016.5 |
| 20260506164546 | 30 | 172 | 3.2 | 11.3 | 0.00 | 0.00 | 0.00 | 57 | 1015.7 |
| 20260506164301 | 30 | 293 | 3.2 | 11.3 | 0.00 | 0.00 | 0.00 | 57 | 1016.7 |
| 20260506163250 | 30 | 236 | 4.8 | 14.5 | 0.00 | 0.00 | 0.00 | 55 | 1016.8 |
| 20260506163054 | 30 | 152 | 3.2 | 14.5 | 0.00 | 0.00 | 0.00 | 55 | 1015.8 |
| 20260506162751 | 30 | 240 | 4.8 | 14.5 | 0.00 | 0.00 | 0.00 | 55 | 1016.8 |
| 20260506162240 | 30 | 196 | 3.2 | 11.3 | 0.00 | 0.00 | 0.00 | 56 | 1016.8 |
| 20260506161740 | 30 | 175 | 3.2 | 9.7 | 0.00 | 0.00 | 0.00 | 57 | 1016.8 |
| 20260506161534 | 30 | 158 | 3.2 | 11.3 | 0.00 | 0.00 | 0.00 | 56 | 1016.0 |
| 20260506161241 | 30 | 276 | 3.2 | 8.0 | 0.00 | 0.00 | 0.00 | 57 | 1016.8 |
| 20260506160737 | 30 | 222 | 4.8 | 11.3 | 0.00 | 0.00 | 0.00 | 58 | 1016.9 |
| 20260506160237 | 29 | 178 | 4.8 | 11.3 | 0.00 | 0.00 | 0.00 | 56 | 1016.9 |
| 20260506160031 | 29 | 139 | 3.2 | 11.3 | 0.00 | 0.00 | 0.00 | 58 | 1016.1 |
| 20260506155235 | 29 | 354 | 3.2 | 12.9 | 0.00 | 0.00 | 0.00 | 58 | 1016.9 |
| 20260506154733 | 28 | 216 | 3.2 | 8.0 | 0.00 | 0.00 | 0.00 | 57 | 1016.8 |
| 20260506154534 | 28 | 107 | 3.2 | 9.7 | 0.00 | 0.00 | 0.00 | 59 | 1016.0 |
| 20260506154237 | 28 | 338 | 3.2 | 12.9 | 0.00 | 0.00 | 0.00 | 59 | 1016.9 |
| 20260506153222 | 28 | 247 | 3.2 | 12.9 | 0.00 | 0.00 | 0.00 | 59 | 1017.0 |
| 20260506153028 | 28 | 268 | 3.2 | 14.5 | 0.00 | 0.00 | 0.00 | 60 | 1016.1 |
| 20260506152718 | 28 | 213 | 4.8 | 12.9 | 0.00 | 0.00 | 0.00 | 59 | 1016.9 |
| 20260506152205 | 28 | 145 | 3.2 | 11.3 | 0.00 | 0.00 | 0.00 | 59 | 1017.1 |
| 20260506151655 | 28 | 52 | 3.2 | 8.0 | 0.00 | 0.00 | 0.00 | 60 | 1017.0 |
| 20260506151521 | 28 | 174 | 1.6 | 8.0 | 0.00 | 0.00 | 0.00 | 61 | 1016.2 |
| 20260506151143 | 28 | 353 | 3.2 | 8.0 | 0.00 | 0.00 | 0.00 | 60 | 1017.0 |
| 20260506150647 | 28 | 216 | 3.2 | 9.7 | 0.00 | 0.00 | 0.00 | 60 | 1016.8 |
| 20260506150138 | 27 | 218 | 3.2 | 9.7 | 0.00 | 0.00 | 0.00 | 61 | 1016.6 |
| 20260506150016 | 27 | 207 | 1.6 | 11.3 | 0.00 | 0.00 | 0.00 | 64 | 1015.7 |
| 20260506145629 | 27 | 226 | 4.8 | 19.3 | 0.00 | 0.00 | 0.00 | 63 | 1016.6 |
| 20260506145122 | 27 | 126 | 6.4 | 19.3 | 0.00 | 0.00 | 0.00 | 61 | 1016.7 |
| 20260506144623 | 26 | 197 | 3.2 | 14.5 | 0.00 | 0.00 | 0.00 | 63 | 1016.7 |
| 20260506144511 | 26 | 138 | 4.8 | 14.5 | 0.00 | 0.00 | 0.00 | 63 | 1015.8 |
| 20260506143052 | 26 | 243 | 4.8 | 14.5 | 0.00 | 0.00 | 0.00 | 65 | 1016.7 |
| 20260506143009 | 26 | 169 | 4.8 | 12.9 | 0.00 | 0.00 | 0.00 | 66 | 1015.9 |
| 20260506142544 | 26 | 231 | 3.2 | 11.3 | 0.00 | 0.00 | 0.00 | 68 | 1016.7 |
| 20260506142043 | 25 | 249 | 4.8 | 9.7 | 0.00 | 0.00 | 0.00 | 66 | 1016.8 |
| 20260506141540 | 25 | 216 | 6.4 | 12.9 | 0.00 | 0.00 | 0.00 | 67 | 1016.7 |
| 20260506141505 | 25 | 158 | 4.8 | 14.5 | 0.00 | 0.00 | 0.00 | 68 | 1015.9 |
| 20260506140534 | 25 | 218 | 4.8 | 14.5 | 0.00 | 0.00 | 0.00 | 67 | 1016.8 |
| 20260506140027 | 25 | 216 | 4.8 | 9.7 | 0.00 | 0.00 | 0.00 | 68 | 1016.7 |
| 20260506140003 | 25 | 154 | 1.6 | 11.3 | 0.00 | 0.00 | 0.00 | 69 | 1015.8 |
| 20260506135516 | 25 | 220 | 3.2 | 12.9 | 0.00 | 0.00 | 0.00 | 68 | 1016.6 |
| 20260506135006 | 25 | 205 | 4.8 | 16.1 | 0.00 | 0.00 | 0.00 | 68 | 1016.5 |
| 20260506134558 | 24 | 129 | 1.6 | 17.7 | 0.00 | 0.00 | 0.00 | 70 | 1015.6 |
| 20260506133438 | 24 | 197 | 4.8 | 14.5 | 0.00 | 0.00 | 0.00 | 69 | 1016.3 |
| 20260506133057 | 23 | 164 | 3.2 | 16.1 | 0.00 | 0.00 | 0.00 | 71 | 1015.4 |
| 20260506132936 | 24 | 198 | 4.8 | 14.5 | 0.00 | 0.00 | 0.00 | 70 | 1016.2 |
| 20260506132438 | 23 | 188 | 6.4 | 14.5 | 0.00 | 0.00 | 0.00 | 70 | 1016.3 |
| 20260506131937 | 23 | 236 | 6.4 | 12.9 | 0.00 | 0.00 | 0.00 | 70 | 1016.3 |
| 20260506131556 | 23 | 197 | 3.2 | 14.5 | 0.00 | 0.00 | 0.00 | 71 | 1015.5 |
| 20260506131435 | 23 | 227 | 4.8 | 12.9 | 0.00 | 0.00 | 0.00 | 70 | 1016.5 |
| 20260506130444 | 22 | 207 | 3.2 | 8.0 | 0.00 | 0.00 | 0.00 | 72 | 1016.5 |
| 20260506130049 | 22 | 127 | 1.6 | 9.7 | 0.00 | 0.00 | 0.00 | 74 | 1015.7 |
| 20260506125924 | 22 | 202 | 3.2 | 11.3 | 0.00 | 0.00 | 0.00 | 74 | 1016.6 |
| 20260506125418 | 22 | 180 | 3.2 | 11.3 | 0.00 | 0.00 | 0.00 | 74 | 1016.5 |
| 20260506124908 | 21 | 189 | 3.2 | 9.7 | 0.00 | 0.00 | 0.00 | 75 | 1016.5 |
| 20260506124546 | 21 | 149 | 3.2 | 8.0 | 0.00 | 0.00 | 0.00 | 77 | 1015.6 |
| 20260506124400 | 21 | 206 | 3.2 | 8.0 | 0.00 | 0.00 | 0.00 | 76 | 1016.4 |
| 20260506123855 | 21 | 171 | 4.8 | 8.0 | 0.00 | 0.00 | 0.00 | 77 | 1016.4 |
| 20260506123357 | 20 | 191 | 3.2 | 9.7 | 0.00 | 0.00 | 0.00 | 78 | 1016.4 |
| 20260506123040 | 20 | 169 | 3.2 | 9.7 | 0.00 | 0.00 | 0.00 | 79 | 1015.6 |
| 20260506122857 | 20 | 187 | 3.2 | 11.3 | 0.00 | 0.00 | 0.00 | 79 | 1016.3 |
| 20260506122350 | 20 | 197 | 3.2 | 11.3 | 0.00 | 0.00 | 0.00 | 79 | 1016.3 |
| 20260506121543 | 19 | 166 | 1.6 | 9.7 | 0.00 | 0.00 | 0.00 | 81 | 1015.4 |
| 20260506121352 | 19 | 224 | 3.2 | 12.9 | 0.00 | 0.00 | 0.00 | 80 | 1016.3 |
| 20260506120034 | 18 | 154 | 4.8 | 9.7 | 0.00 | 0.00 | 0.00 | 82 | 1015.4 |
| 20260506115850 | 18 | 199 | 3.2 | 8.0 | 0.00 | 0.00 | 0.00 | 82 | 1016.2 |
| 20260506115349 | 18 | 204 | 3.2 | 6.4 | 0.00 | 0.00 | 0.00 | 82 | 1016.3 |
| 20260506114836 | 17 | 245 | 1.6 | 6.4 | 0.00 | 0.00 | 0.00 | 82 | 1016.2 |
| 20260506114527 | 17 | 139 | 1.6 | 4.8 | 0.00 | 0.00 | 0.00 | 83 | 1015.3 |
| 20260506114336 | 17 | 196 | 1.6 | 4.8 | 0.00 | 0.00 | 0.00 | 82 | 1016.3 |
| 20260506113837 | 17 | 141 | 0.0 | 4.8 | 0.00 | 0.00 | 0.00 | 82 | 1016.3 |
| 20260506113331 | 17 | 326 | 0.0 | 3.2 | 0.00 | 0.00 | 0.00 | 82 | 1016.2 |
| 20260506113025 | 17 | 268 | 0.0 | 3.2 | 0.00 | 0.00 | 0.00 | 83 | 1015.2 |
| 20260506112826 | 17 | 326 | 0.0 | 3.2 | 0.00 | 0.00 | 0.00 | 82 | 1016.1 |
| 20260506112325 | 17 | 327 | 0.0 | 1.6 | 0.00 | 0.00 | 0.00 | 82 | 1016.0 |
| 20260506111826 | 17 | 329 | 0.0 | 1.6 | 0.00 | 0.00 | 0.00 | 82 | 1015.8 |
| 20260506111529 | 16 | 271 | 0.0 | 1.6 | 0.00 | 0.00 | 0.00 | 83 | 1014.9 |
| 20260506111329 | 17 | 329 | 0.0 | 1.6 | 0.00 | 0.00 | 0.00 | 82 | 1015.6 |
| 20260506110307 | 16 | 161 | 0.0 | 1.6 | 0.00 | 0.00 | 0.00 | 82 | 1015.5 |
| 20260506110023 | 16 | 151 | 0.0 | 1.6 | 0.00 | 0.00 | 0.00 | 83 | 1014.6 |
| 20260506105755 | 16 | 209 | 0.0 | 1.6 | 0.00 | 0.00 | 0.00 | 82 | 1015.5 |
| 20260506105247 | 16 | 209 | 0.0 | 1.6 | 0.00 | 0.00 | 0.00 | 82 | 1015.4 |
| 20260506104732 | 16 | 209 | 0.0 | 1.6 | 0.00 | 0.00 | 0.00 | 82 | 1015.3 |
| 20260506104519 | 16 | 151 | 0.0 | 1.6 | 0.00 | 0.00 | 0.00 | 83 | 1014.5 |
| 20260506104230 | 16 | 209 | 0.0 | 1.6 | 0.00 | 0.00 | 0.00 | 82 | 1015.4 |
| 20260506103731 | 17 | 209 | 0.0 | 1.6 | 0.00 | 0.00 | 0.00 | 82 | 1015.3 |
| 20260506103227 | 16 | 209 | 0.0 | 3.2 | 0.00 | 0.00 | 0.00 | 82 | 1015.4 |
| 20260506103019 | 16 | 151 | 0.0 | 3.2 | 0.00 | 0.00 | 0.00 | 83 | 1014.5 |
| 20260506102723 | 16 | 209 | 0.0 | 3.2 | 0.00 | 0.00 | 0.00 | 82 | 1015.4 |
| 20260506102208 | 17 | 209 | 0.0 | 1.6 | 0.00 | 0.00 | 0.00 | 82 | 1015.5 |
| 20260506101519 | 16 | 151 | 0.0 | 1.6 | 0.00 | 0.00 | 0.00 | 83 | 1014.6 |
| 20260506101209 | 17 | 209 | 0.0 | 1.6 | 0.00 | 0.00 | 0.00 | 82 | 1015.5 |
| 20260506100218 | 17 | 209 | 0.0 | 0.0 | 0.00 | 0.00 | 0.00 | 82 | 1015.6 |
| 20260506100018 | 17 | 151 | 0.0 | 0.0 | 0.00 | 0.00 | 0.00 | 83 | 1014.7 |
| 20260506094703 | 17 | 209 | 0.0 | 0.0 | 0.00 | 0.00 | 0.00 | 82 | 1015.5 |
| 20260506094518 | 17 | 151 | 0.0 | 0.0 | 0.00 | 0.00 | 0.00 | 83 | 1014.7 |
| 20260506094207 | 17 | 209 | 0.0 | 0.0 | 0.00 | 0.00 | 0.00 | 82 | 1015.5 |
| 20260506093701 | 17 | 209 | 0.0 | 0.0 | 0.00 | 0.00 | 0.00 | 82 | 1015.5 |
| 20260506093201 | 17 | 209 | 0.0 | 0.0 | 0.00 | 0.00 | 0.00 | 82 | 1015.4 |
| 20260506093016 | 17 | 151 | 0.0 | 0.0 | 0.00 | 0.00 | 0.00 | 83 | 1014.5 |
| 20260506092703 | 17 | 209 | 0.0 | 0.0 | 0.00 | 0.00 | 0.00 | 82 | 1015.3 |
| 20260506092200 | 17 | 209 | 0.0 | 0.0 | 0.00 | 0.00 | 0.00 | 82 | 1015.3 |
| 20260506091700 | 17 | 209 | 0.0 | 0.0 | 0.00 | 0.00 | 0.00 | 82 | 1015.2 |
| 20260506091516 | 16 | 151 | 0.0 | 0.0 | 0.00 | 0.00 | 0.00 | 82 | 1014.4 |
| 20260506091200 | 17 | 209 | 0.0 | 1.6 | 0.00 | 0.00 | 0.00 | 81 | 1015.1 |
| 20260506090700 | 17 | 209 | 0.0 | 1.6 | 0.00 | 0.00 | 0.00 | 82 | 1015.1 |
| 20260506090202 | 17 | 209 | 0.0 | 1.6 | 0.00 | 0.00 | 0.00 | 82 | 1015.2 |
| 20260506090015 | 16 | 151 | 0.0 | 0.0 | 0.00 | 0.00 | 0.00 | 83 | 1014.3 |
| 20260506084655 | 17 | 209 | 0.0 | 3.2 | 0.00 | 0.00 | 0.00 | 82 | 1015.2 |
| 20260506084517 | 16 | 151 | 0.0 | 3.2 | 0.00 | 0.00 | 0.00 | 83 | 1014.3 |
| 20260506083652 | 16 | 209 | 0.0 | 1.6 | 0.00 | 0.00 | 0.00 | 82 | 1015.2 |
| 20260506083147 | 16 | 209 | 0.0 | 1.6 | 0.00 | 0.00 | 0.00 | 81 | 1015.2 |
| 20260506083017 | 16 | 151 | 0.0 | 1.6 | 0.00 | 0.00 | 0.00 | 83 | 1014.4 |
| 20260506082137 | 16 | 209 | 0.0 | 0.0 | 0.00 | 0.00 | 0.00 | 81 | 1015.4 |
| 20260506081638 | 17 | 209 | 0.0 | 0.0 | 0.00 | 0.00 | 0.00 | 81 | 1015.2 |
| 20260506081512 | 16 | 151 | 0.0 | 0.0 | 0.00 | 0.00 | 0.00 | 82 | 1014.3 |
| 20260506081132 | 17 | 209 | 0.0 | 1.6 | 0.00 | 0.00 | 0.00 | 81 | 1015.2 |
| 20260506080144 | 17 | 209 | 0.0 | 1.6 | 0.00 | 0.00 | 0.00 | 81 | 1015.2 |
| 20260506073100 | 16 | 209 | 0.0 | 1.6 | 0.00 | 0.00 | 0.00 | 81 | 1015.3 |
| 20260506073010 | 16 | 151 | 0.0 | 1.6 | 0.00 | 0.00 | 0.00 | 82 | 1014.4 |
| 20260506072600 | 16 | 209 | 0.0 | 1.6 | 0.00 | 0.00 | 0.00 | 80 | 1015.0 |
| 20260506072055 | 16 | 209 | 0.0 | 1.6 | 0.00 | 0.00 | 0.00 | 80 | 1014.9 |
| 20260506071543 | 16 | 209 | 0.0 | 1.6 | 0.00 | 0.00 | 0.00 | 80 | 1014.9 |
| 20260506071508 | 16 | 151 | 0.0 | 1.6 | 0.00 | 0.00 | 0.00 | 81 | 1014.1 |
| 20260506071039 | 16 | 209 | 0.0 | 0.0 | 0.00 | 0.00 | 0.00 | 80 | 1015.1 |
| 20260506070536 | 16 | 209 | 0.0 | 0.0 | 0.00 | 0.00 | 0.00 | 80 | 1015.1 |
| 20260506062019 | 16 | 209 | 0.0 | 0.0 | 0.00 | 0.00 | 0.00 | 79 | 1015.7 |
| 20260506061519 | 16 | 209 | 0.0 | 0.0 | 0.00 | 0.00 | 0.00 | 79 | 1015.8 |
| 20260506061504 | 16 | 151 | 0.0 | 0.0 | 0.00 | 0.00 | 0.00 | 80 | 1015.0 |
| 20260506051015 | 16 | 209 | 0.0 | 0.0 | 0.00 | 0.00 | 0.00 | 77 | 1016.1 |
| 20260506050508 | 16 | 209 | 0.0 | 0.0 | 0.00 | 0.00 | 0.00 | 77 | 1016.0 |
| 20260506044522 | 16 | 151 | 0.0 | 0.0 | 0.00 | 0.00 | 0.00 | 78 | 1015.3 |
| 20260506044507 | 16 | 209 | 0.0 | 0.0 | 0.00 | 0.00 | 0.00 | 77 | 1016.1 |
| 20260506044008 | 16 | 209 | 0.0 | 0.0 | 0.00 | 0.00 | 0.00 | 76 | 1016.2 |
| 20260506043507 | 16 | 209 | 0.0 | 0.0 | 0.00 | 0.00 | 0.00 | 76 | 1016.2 |
| 20260506043020 | 16 | 151 | 0.0 | 0.0 | 0.00 | 0.00 | 0.00 | 77 | 1015.3 |
| 20260506042504 | 16 | 209 | 0.0 | 0.0 | 0.00 | 0.00 | 0.00 | 76 | 1016.1 |
| 20260506042007 | 16 | 209 | 0.0 | 0.0 | 0.00 | 0.00 | 0.00 | 76 | 1016.1 |
| 20260506041532 | 16 | 151 | 0.0 | 0.0 | 0.00 | 0.00 | 0.00 | 77 | 1015.3 |
| 20260506041454 | 17 | 209 | 0.0 | 0.0 | 0.00 | 0.00 | 0.00 | 76 | 1016.1 |
| 20260506040947 | 17 | 209 | 0.0 | 0.0 | 0.00 | 0.00 | 0.00 | 76 | 1016.1 |
| 20260506040447 | 17 | 209 | 0.0 | 0.0 | 0.00 | 0.00 | 0.00 | 76 | 1016.0 |
| 20260506040017 | 17 | 151 | 0.0 | 0.0 | 0.00 | 0.00 | 0.00 | 77 | 1015.3 |
| 20260506035946 | 17 | 209 | 0.0 | 0.0 | 0.00 | 0.00 | 0.00 | 76 | 1016.1 |
| 20260506034924 | 17 | 209 | 0.0 | 0.0 | 0.00 | 0.00 | 0.00 | 76 | 1016.2 |
| 20260506034523 | 17 | 151 | 0.0 | 0.0 | 0.00 | 0.00 | 0.00 | 77 | 1015.4 |
| 20260506034412 | 17 | 209 | 0.0 | 0.0 | 0.00 | 0.00 | 0.00 | 76 | 1016.4 |
| 20260506033905 | 17 | 209 | 0.0 | 0.0 | 0.00 | 0.00 | 0.00 | 76 | 1016.4 |
| 20260506033405 | 17 | 209 | 0.0 | 0.0 | 0.00 | 0.00 | 0.00 | 76 | 1016.5 |
| 20260506033017 | 17 | 151 | 0.0 | 0.0 | 0.00 | 0.00 | 0.00 | 77 | 1015.6 |
| 20260506032904 | 17 | 209 | 0.0 | 0.0 | 0.00 | 0.00 | 0.00 | 76 | 1016.5 |
| 20260506032400 | 17 | 209 | 0.0 | 0.0 | 0.00 | 0.00 | 0.00 | 75 | 1016.5 |
| 20260506031853 | 17 | 209 | 0.0 | 0.0 | 0.00 | 0.00 | 0.00 | 75 | 1016.4 |
| 20260506031516 | 17 | 151 | 0.0 | 0.0 | 0.00 | 0.00 | 0.00 | 76 | 1015.5 |
| 20260506031351 | 17 | 209 | 0.0 | 0.0 | 0.00 | 0.00 | 0.00 | 74 | 1016.3 |
| 20260506030349 | 17 | 209 | 0.0 | 0.0 | 0.00 | 0.00 | 0.00 | 73 | 1016.3 |
| 20260506030017 | 17 | 151 | 0.0 | 0.0 | 0.00 | 0.00 | 0.00 | 74 | 1015.3 |
| 20260506025840 | 17 | 209 | 0.0 | 0.0 | 0.00 | 0.00 | 0.00 | 74 | 1016.2 |
| 20260506025339 | 17 | 209 | 0.0 | 0.0 | 0.00 | 0.00 | 0.00 | 74 | 1016.2 |
| 20260506024841 | 17 | 209 | 0.0 | 0.0 | 0.00 | 0.00 | 0.00 | 74 | 1016.2 |
| 20260506024514 | 17 | 151 | 0.0 | 0.0 | 0.00 | 0.00 | 0.00 | 74 | 1015.3 |
| 20260506024340 | 18 | 209 | 0.0 | 0.0 | 0.00 | 0.00 | 0.00 | 73 | 1016.1 |
| 20260506023829 | 18 | 209 | 0.0 | 0.0 | 0.00 | 0.00 | 0.00 | 73 | 1016.1 |
| 20260506023329 | 18 | 209 | 0.0 | 0.0 | 0.00 | 0.00 | 0.00 | 73 | 1016.0 |
| 20260506023014 | 18 | 151 | 0.0 | 0.0 | 0.00 | 0.00 | 0.00 | 74 | 1015.2 |
| 20260506022830 | 18 | 209 | 0.0 | 0.0 | 0.00 | 0.00 | 0.00 | 73 | 1016.0 |
| 20260506022327 | 18 | 209 | 0.0 | 1.6 | 0.00 | 0.00 | 0.00 | 73 | 1016.0 |
| 20260506021821 | 18 | 209 | 0.0 | 1.6 | 0.00 | 0.00 | 0.00 | 72 | 1016.0 |
| 20260506021514 | 18 | 151 | 0.0 | 1.6 | 0.00 | 0.00 | 0.00 | 73 | 1015.1 |
| 20260506021310 | 18 | 209 | 0.0 | 3.2 | 0.00 | 0.00 | 0.00 | 72 | 1015.9 |
| 20260506020803 | 18 | 209 | 0.0 | 3.2 | 0.00 | 0.00 | 0.00 | 72 | 1015.9 |
| 20260506020258 | 18 | 209 | 0.0 | 3.2 | 0.00 | 0.00 | 0.00 | 71 | 1015.8 |
| 20260506020013 | 18 | 152 | 0.0 | 1.6 | 0.00 | 0.00 | 0.00 | 72 | 1015.0 |
| 20260506015756 | 19 | 210 | 0.0 | 0.0 | 0.00 | 0.00 | 0.00 | 71 | 1015.8 |
| 20260506015258 | 19 | 210 | 0.0 | 1.6 | 0.00 | 0.00 | 0.00 | 70 | 1015.8 |
| 20260506014753 | 19 | 210 | 0.0 | 1.6 | 0.00 | 0.00 | 0.00 | 70 | 1015.7 |
| 20260506014512 | 19 | 152 | 0.0 | 1.6 | 0.00 | 0.00 | 0.00 | 71 | 1014.8 |
| 20260506014245 | 19 | 210 | 0.0 | 1.6 | 0.00 | 0.00 | 0.00 | 70 | 1015.6 |
| 20260506013744 | 19 | 210 | 0.0 | 3.2 | 0.00 | 0.00 | 0.00 | 70 | 1015.6 |
| 20260506013245 | 20 | 209 | 1.6 | 3.2 | 0.00 | 0.00 | 0.00 | 69 | 1015.5 |
| 20260506013030 | 20 | 151 | 0.0 | 3.2 | 0.00 | 0.00 | 0.00 | 70 | 1014.6 |
| 20260506012746 | 20 | 210 | 0.0 | 3.2 | 0.00 | 0.00 | 0.00 | 69 | 1015.5 |
| 20260506012241 | 20 | 209 | 0.0 | 3.2 | 0.00 | 0.00 | 0.00 | 68 | 1015.5 |
| 20260506011745 | 20 | 209 | 1.6 | 3.2 | 0.00 | 0.00 | 0.00 | 68 | 1015.5 |
| 20260506011522 | 20 | 151 | 0.0 | 4.8 | 0.00 | 0.00 | 0.00 | 69 | 1014.7 |
| 20260506010726 | 20 | 207 | 0.0 | 3.2 | 0.00 | 0.00 | 0.00 | 67 | 1015.6 |
| 20260506010219 | 20 | 205 | 1.6 | 4.8 | 0.00 | 0.00 | 0.00 | 67 | 1015.5 |
| 20260506010012 | 20 | 147 | 0.0 | 4.8 | 0.00 | 0.00 | 0.00 | 68 | 1014.7 |
| 20260506005718 | 20 | 205 | 1.6 | 6.4 | 0.00 | 0.00 | 0.00 | 67 | 1015.4 |
| 20260506005220 | 20 | 213 | 0.0 | 6.4 | 0.00 | 0.00 | 0.00 | 66 | 1015.5 |
| 20260506004511 | 20 | 130 | 0.0 | 4.8 | 0.00 | 0.00 | 0.00 | 67 | 1014.7 |
| 20260506004212 | 21 | 188 | 1.6 | 4.8 | 0.00 | 0.00 | 0.00 | 66 | 1015.5 |
| 20260506003703 | 21 | 207 | 1.6 | 4.8 | 0.00 | 0.00 | 0.00 | 65 | 1015.5 |
| 20260506003152 | 21 | 207 | 1.6 | 4.8 | 0.00 | 0.00 | 0.00 | 65 | 1015.4 |
| 20260506003011 | 21 | 149 | 0.0 | 4.8 | 0.00 | 0.00 | 0.00 | 66 | 1014.6 |
| 20260506002643 | 21 | 207 | 1.6 | 4.8 | 0.00 | 0.00 | 0.00 | 65 | 1015.3 |